TimeCST,TemperatureF,Dew PointF,Humidity,Sea Level PressureIn,VisibilityMPH,Wind Direction,Wind SpeedMPH,Gust SpeedMPH,PrecipitationIn,Events,Conditions,WindDirDegrees,DateUTC
12:15 AM,32.0,25.7,78,30.26,10.0,SSW,8.1,-,N/A,,Clear,200,2012-11-29 06:15:00
12:35 AM,31.6,25.5,78,30.26,10.0,SSW,8.1,-,N/A,,Clear,200,2012-11-29 06:35:00
12:55 AM,30.7,25.5,81,30.26,10.0,South,5.8,-,N/A,,Clear,190,2012-11-29 06:55:00
1:15 AM,30.2,24.4,79,30.25,10.0,South,9.2,-,N/A,,Clear,180,2012-11-29 07:15:00
1:35 AM,29.8,25.0,82,30.26,10.0,South,6.9,-,N/A,,Clear,180,2012-11-29 07:35:00
1:55 AM,30.7,25.5,81,30.26,10.0,South,5.8,-,N/A,,Clear,180,2012-11-29 07:55:00
2:15 AM,29.7,24.8,82,30.26,10.0,South,6.9,-,N/A,,Clear,180,2012-11-29 08:15:00
2:35 AM,30.2,25.2,82,30.26,10.0,South,8.1,-,N/A,,Clear,190,2012-11-29 08:35:00
2:55 AM,30.0,25.5,83,30.26,10.0,South,5.8,-,N/A,,Clear,180,2012-11-29 08:55:00
3:15 AM,30.2,25.3,82,30.25,10.0,South,6.9,-,N/A,,Clear,180,2012-11-29 09:15:00
3:35 AM,30.2,24.8,80,30.25,10.0,South,9.2,-,N/A,,Clear,180,2012-11-29 09:35:00
3:55 AM,30.9,25.9,82,30.24,10.0,South,10.4,-,N/A,,Clear,190,2012-11-29 09:55:00
4:15 AM,31.6,26.2,80,30.24,10.0,South,10.4,-,N/A,,Clear,190,2012-11-29 10:15:00
4:35 AM,30.7,25.5,81,30.23,10.0,South,8.1,-,N/A,,Clear,190,2012-11-29 10:35:00
4:55 AM,29.1,24.6,83,30.23,10.0,South,8.1,-,N/A,,Clear,180,2012-11-29 10:55:00
5:15 AM,30.0,25.5,83,30.23,10.0,South,9.2,-,N/A,,Clear,190,2012-11-29 11:15:00
5:35 AM,30.2,25.3,82,30.22,10.0,South,10.4,-,N/A,,Clear,190,2012-11-29 11:35:00
5:55 AM,29.3,24.8,83,30.22,10.0,South,10.4,-,N/A,,Clear,190,2012-11-29 11:55:00
6:15 AM,28.9,24.8,84,30.21,10.0,South,9.2,-,N/A,,Clear,180,2012-11-29 12:15:00
6:35 AM,30.0,25.5,83,30.21,10.0,South,10.4,-,N/A,,Clear,180,2012-11-29 12:35:00
6:55 AM,28.9,24.8,84,30.21,10.0,South,10.4,-,N/A,,Clear,180,2012-11-29 12:55:00
7:15 AM,29.3,25.3,85,30.21,7.0,South,11.5,-,N/A,,Clear,180,2012-11-29 13:15:00
7:35 AM,30.7,26.2,83,30.21,7.0,South,11.5,-,N/A,,Clear,180,2012-11-29 13:35:00
7:55 AM,32.0,26.6,80,30.21,10.0,South,10.4,-,N/A,,Clear,180,2012-11-29 13:55:00
8:15 AM,32.9,27.3,80,30.21,10.0,South,11.5,-,N/A,,Clear,190,2012-11-29 14:15:00
8:35 AM,34.3,28.2,78,30.20,10.0,South,11.5,-,N/A,,Clear,180,2012-11-29 14:35:00
8:55 AM,35.6,28.8,76,30.20,10.0,South,12.7,-,N/A,,Clear,190,2012-11-29 14:55:00
9:15 AM,37.0,29.5,74,30.20,10.0,South,11.5,-,N/A,,Clear,180,2012-11-29 15:15:00
9:35 AM,39.6,30.7,71,30.20,10.0,South,12.7,-,N/A,,Clear,190,2012-11-29 15:35:00
9:55 AM,40.6,30.6,67,30.20,10.0,South,12.7,-,N/A,,Clear,190,2012-11-29 15:55:00
10:15 AM,42.3,31.1,65,30.19,10.0,South,11.5,-,N/A,,Clear,180,2012-11-29 16:15:00
10:35 AM,43.5,31.1,62,30.19,10.0,South,12.7,-,N/A,,Clear,190,2012-11-29 16:35:00
10:55 AM,44.6,31.6,60,30.18,10.0,SSW,11.5,-,N/A,,Clear,200,2012-11-29 16:55:00
11:15 AM,45.1,31.6,59,30.16,10.0,South,9.2,-,N/A,,Clear,180,2012-11-29 17:15:00
11:35 AM,46.4,32.0,57,30.15,10.0,South,8.1,-,N/A,,Clear,190,2012-11-29 17:35:00
11:55 AM,47.8,32.0,54,30.13,10.0,South,9.2,-,N/A,,Clear,190,2012-11-29 17:55:00
12:15 PM,49.1,32.4,53,30.12,10.0,South,10.4,-,N/A,,Clear,170,2012-11-29 18:15:00
12:35 PM,50.2,32.7,51,30.12,10.0,South,10.4,-,N/A,,Clear,180,2012-11-29 18:35:00
12:55 PM,50.5,32.9,51,30.11,10.0,South,10.4,-,N/A,,Clear,190,2012-11-29 18:55:00
1:15 PM,51.1,33.4,51,30.10,10.0,South,10.4,-,N/A,,Clear,170,2012-11-29 19:15:00
1:35 PM,50.9,33.8,52,30.10,10.0,South,9.2,-,N/A,,Clear,170,2012-11-29 19:35:00
1:55 PM,51.3,34.3,52,30.09,10.0,South,12.7,-,N/A,,Clear,170,2012-11-29 19:55:00
2:15 PM,51.3,34.3,52,30.08,10.0,South,11.5,-,N/A,,Clear,180,2012-11-29 20:15:00
2:35 PM,51.3,34.3,52,30.07,10.0,South,9.2,-,N/A,,Clear,170,2012-11-29 20:35:00
2:55 PM,50.9,34.7,54,30.07,10.0,SSE,11.5,-,N/A,,Clear,160,2012-11-29 20:55:00
3:15 PM,50.9,35.1,55,30.06,10.0,SSE,9.2,-,N/A,,Clear,150,2012-11-29 21:15:00
3:35 PM,50.5,35.2,56,30.06,10.0,SSE,8.1,-,N/A,,Clear,150,2012-11-29 21:35:00
3:55 PM,49.6,35.2,58,30.05,10.0,SE,8.1,-,N/A,,Clear,140,2012-11-29 21:55:00
4:15 PM,49.1,35.2,59,30.05,10.0,SSE,9.2,-,N/A,,Clear,150,2012-11-29 22:15:00
4:35 PM,48.0,34.9,60,30.05,10.0,SSE,10.4,-,N/A,,Clear,150,2012-11-29 22:35:00
4:55 PM,47.5,34.7,61,30.06,10.0,SSE,9.2,-,N/A,,Clear,150,2012-11-29 22:55:00
5:15 PM,46.9,34.7,62,30.07,10.0,SE,8.1,-,N/A,,Clear,140,2012-11-29 23:15:00
5:35 PM,46.6,34.3,62,30.08,10.0,SE,8.1,-,N/A,,Clear,140,2012-11-29 23:35:00
5:55 PM,45.5,34.0,64,30.09,10.0,SSE,8.1,-,N/A,,Clear,160,2012-11-29 23:55:00
6:15 PM,45.3,34.0,65,30.09,10.0,South,10.4,-,N/A,,Clear,170,2012-11-30 00:15:00
6:35 PM,44.6,33.8,66,30.09,10.0,SSE,8.1,-,N/A,,Clear,160,2012-11-30 00:35:00
6:55 PM,43.3,33.6,69,30.08,10.0,SE,6.9,-,N/A,,Clear,140,2012-11-30 00:55:00
7:15 PM,42.8,33.1,69,30.09,10.0,SE,5.8,-,N/A,,Clear,140,2012-11-30 01:15:00
7:35 PM,42.3,33.1,70,30.09,10.0,SE,5.8,-,N/A,,Clear,130,2012-11-30 01:35:00
7:55 PM,42.1,32.9,70,30.09,10.0,SE,6.9,-,N/A,,Clear,140,2012-11-30 01:55:00
8:15 PM,40.8,32.9,73,30.08,10.0,SE,5.8,-,N/A,,Clear,140,2012-11-30 02:15:00
8:35 PM,41.7,33.1,71,30.08,10.0,SE,5.8,-,N/A,,Clear,130,2012-11-30 02:35:00
8:55 PM,41.2,33.3,73,30.08,10.0,SE,8.1,-,N/A,,Scattered Clouds,140,2012-11-30 02:55:00
9:15 PM,41.2,33.3,73,30.08,10.0,SE,9.2,-,N/A,,Scattered Clouds,140,2012-11-30 03:15:00
9:35 PM,41.9,33.8,73,30.07,10.0,SSE,9.2,-,N/A,,Clear,150,2012-11-30 03:35:00
9:55 PM,41.4,33.4,73,30.07,10.0,SSE,9.2,-,N/A,,Clear,150,2012-11-30 03:55:00
10:15 PM,41.2,33.3,73,30.07,10.0,SSE,9.2,-,N/A,,Mostly Cloudy,150,2012-11-30 04:15:00
10:35 PM,41.0,32.9,73,30.07,10.0,SSE,10.4,-,N/A,,Mostly Cloudy,150,2012-11-30 04:35:00
10:55 PM,40.8,32.9,73,30.07,10.0,SSE,9.2,-,N/A,,Clear,160,2012-11-30 04:55:00
11:15 PM,40.1,32.4,74,30.06,10.0,SSE,8.1,-,N/A,,Scattered Clouds,160,2012-11-30 05:15:00
11:35 PM,40.3,32.2,73,30.07,10.0,SSE,9.2,-,N/A,,Mostly Cloudy,160,2012-11-30 05:35:00